Flag for Guadeloupe Weather past 2 weeks in Pointe-à-Pitre, Guadeloupe

Now
77 °F

Clear.


Feels Like: 78 °F
Forecast: 76 / 87 °F
Wind: No wind

Location: Le Raizet - Guadeloupe

Current Time: Aug 29, 2014 at 1:54:02 AM

Latest Report: Aug 29, 2014 at 1:30 AM


Visibility: N/A

Pressure: 30.01 "Hg

Humidity: 89%

Dew point: 73 °F

Location of Pointe-à-PitreLocation

Historic Weather in Pointe-à-Pitre — Graph

°F

Pointe-à-Pitre temperature yesterday

Maximum temperature yesterday: 86 °F (at 10:30 AM)
Minimum temperature yesterday: 75 °F (at 5:30 AM)
Average temperature yesterday: 81 °F

Past Weeks' High & Low Weather Summary

 TemperatureHumidityPressure
High90 °F (Aug 14, 2:00 PM)94% (Aug 16, 6:30 AM)30.07 "Hg (Aug 16, 6:30 AM)
Low72 °F (Aug 24, 4:30 AM)49% (Aug 14, 2:30 PM)29.83 "Hg (Aug 21, 3:30 PM)
Average82 °F76%29.95 "Hg
* Reported Aug 14 1:00 AM — Aug 29 1:00 AM, Pointe-à-Pitre, Weather by CustomWeather, © 2014

Note: Actual official high and low records may vary slightly from our data, if they occured in-between our weather recording intervals... More about our weather records

Advertising

Pointe-à-Pitre weather history for previous 24 hours

 ConditionsComfort  
Time TempWeatherWind HumidityBarometerVisibility
1:00 AM
Aug 29
77 °FClear.2 mph89%30.01 "HgN/A
12:30 AM77 °FClear.No wind89%30.01 "HgN/A
12:00 AM77 °FClear.No wind89%30.01 "HgN/A
11:30 PM
Aug 28
77 °FClear.No wind89%30.01 "HgN/A
11:00 PM77 °FClear.2 mph89%30.01 "HgN/A
10:30 PM79 °FClear.2 mph84%30.01 "HgN/A
10:00 PM79 °FClear.2 mph84%30.01 "HgN/A
9:30 PM79 °FClear.2 mph84%30.01 "HgN/A
9:00 PM79 °FPassing clouds.2 mph84%30.01 "HgN/A
8:30 PM81 °FOvercast.No wind79%29.98 "HgN/A
8:00 PM81 °FOvercast.No wind79%29.98 "HgN/A
7:30 PM81 °FLight rain. Overcast.2 mph79%29.98 "HgN/A
7:00 PM81 °FPassing clouds.3 mph79%29.98 "HgN/A
6:34 PM82 °FPassing clouds.2 mph70%29.95 "HgN/A
6:00 PM82 °FPartly sunny.5 mph70%29.95 "HgN/A
5:30 PM82 °FPartly sunny.6 mph70%29.95 "HgN/A
5:00 PM84 °FPartly sunny.8 mph62%29.95 "HgN/A
4:30 PM84 °FPartly sunny.9 mph62%29.95 "HgN/A
4:00 PM86 °FPartly sunny.8 mph62%29.95 "HgN/A
3:04 PM84 °FPartly sunny.9 mph66%29.95 "HgN/A
2:30 PM84 °FPartly sunny.7 mph62%29.95 "HgN/A
2:00 PM86 °FPartly sunny.7 mph52%29.95 "HgN/A
1:39 PM86 °FPartly sunny.10 mph55%29.98 "HgN/A
1:00 PM86 °FPartly sunny.10 mph59%29.98 "HgN/A
12:30 PM84 °FPartly sunny.12 mph62%29.98 "HgN/A
12:00 PM84 °FBroken clouds.10 mph62%29.98 "HgN/A
11:30 AM86 °FBroken clouds.7 mph52%29.98 "HgN/A
11:00 AM86 °FBroken clouds.6 mph52%29.98 "HgN/A
10:30 AM86 °FBroken clouds.8 mph55%30.01 "HgN/A
10:00 AM84 °FBroken clouds.9 mph58%30.01 "HgN/A
9:30 AM84 °FPartly sunny.2 mph66%30.01 "HgN/A
9:00 AM81 °FPartly sunny.1 mph74%30.01 "HgN/A
8:39 AM81 °FBroken clouds.2 mph74%30.01 "HgN/A
7:30 AM77 °FBroken clouds.3 mph83%29.98 "HgN/A
7:00 AM77 °FClear.3 mph83%29.98 "HgN/A
6:30 AM75 °FClear.3 mph83%29.95 "HgN/A
6:00 AM75 °FClear.3 mph83%29.95 "HgN/A
5:30 AM75 °FClear.3 mph83%29.95 "HgN/A
5:00 AM77 °FClear.3 mph79%29.95 "HgN/A
4:30 AM77 °FClear.9 mph79%29.95 "HgN/A
4:00 AM77 °FClear.8 mph79%29.95 "HgN/A
3:30 AM77 °FClear.9 mph83%29.95 "HgN/A
3:00 AM77 °FMostly cloudy.13 mph79%29.95 "HgN/A
2:30 AM77 °FPassing clouds.17 mph79%29.95 "HgN/A
2:00 AM77 °FPassing clouds.15 mph83%29.95 "HgN/A
1:30 AM77 °FPassing clouds.13 mph79%29.98 "HgN/A
1:00 AM77 °FPartly cloudy.15 mph83%29.98 "HgN/A
Weather by CustomWeather, © 2014

See weather overviewHow to use our weather pages